Content
SEND FEEDBACK

Daily
Averages
Monthly
Summary
Italy

BORGO SANTA RITA, ITALY


Home > Europe > Italy
Elevation: 21 meters     Latitude: 41 39N     Longitude: 012 27E

WEATHER
 
SELECT A DAY
Number of Records: 176,485;   Date Range: 7/1/96 - 10/22/14
 
SHARE

PRINT THIS DATA

[ ← Previous Day ]
WEATHER ALMANAC - 23 JANUARY, 2013
[ Next Day → ]
[ °F ]   °C
Weather ElementAverageHighLow
Temperature7.8 °C9 °C (10:29 am)6 °C (1:55 am)
Dewpoint5.4 °C8 °C (10:55 am)0 °C (1:55 am)
Humidity84 %93 % (2:55 am)66 % (1:55 am)
Barometer1005.4 hPa1009.1 hPa (1:00 am)1001 hPa (10:55 pm)
Wind Speed19.2 km/h38.9 km/h (11:55 am)
Weather ElementAverage
Visibility9.3 km
Wind DirectionESE (112.3 °)

Weather ElementTotal
Precipitation---
Heating Degree Days10.8 (Base 18.3)
Averaged from 30 records on 23 January, 2013
WEATHER CONDITIONS BREAKOUT
WIND DIRECTION BREAKOUT
WEATHER BY HOUR - 23 JANUARY, 2013
[ °F ]   °C
Local TimeTemperatureDewpointHumidityBarometerVisibilityWind DirectionWind SpeedGust SpeedPrecipitationEventsConditions
1:00 AM6.7 °C5.6 °C91 %1009.1 hPa8 kmENE (60°)9.3 km/h
1:55 AM6 °C0 °C66 %1008.1 hPa10 kmEast (90°)9.3 km/hMostly Cloudy
2:55 AM6 °C5 °C93 %1008.1 hPa10 kmNorth (360°)3.7 km/hMostly Cloudy
3:55 AM7 °C4 °C81 %1007.1 hPa10 kmEast (100°)16.7 km/hMostly Cloudy
4:00 AM7.2 °C3.9 °C74 %1008.1 hPa9.7 kmEast (100°)16.7 km/hMostly Cloudy
5:55 AM7 °C4 °C81 %1007.1 hPa10 kmEast (90°)16.7 km/hScattered Clouds
6:55 AM7 °C4 °C81 %1007.1 hPa10 kmEast (100°)18.5 km/hScattered Clouds
7:00 AM7.2 °C3.9 °C73 %1007.1 hPa9.7 kmEast (100°)18.5 km/h
7:55 AM7 °C5 °C87 %1006.1 hPa10 kmESE (110°)25.9 km/hScattered Clouds
8:55 AM8 °C5 °C81 %1006.1 hPa6.9 kmESE (110°)24.1 km/hRainLight Rain
9:55 AM8 °C7 °C93 %1007.1 hPa6.9 kmESE (110°)22.2 km/hRainLight Rain
10:00 AM7.8 °C6.7 °C92 %1007.1 hPa6.4 kmESE (110°)22.2 km/hRainLight Rain
10:29 AM9 °C7 °C87 %1007.1 hPa6.9 kmEast (100°)22.2 km/hRain-ThunderstormLight Thunderstorms and Rain
10:55 AM9 °C8 °C93 %1007.1 hPa6.9 kmEast (100°)20.4 km/hRain-ThunderstormLight Thunderstorms and Rain
11:55 AM8 °C7 °C93 %1006.1 hPa6.9 kmSSW (210°)38.9 km/hRainLight Rain
1:00 PM7.2 °C6.7 °C93 %1006.8 hPa8 kmESE (110°)16.7 km/h
1:55 PM8 °C7 °C93 %1005.1 hPa10 kmEast (100°)18.5 km/hScattered Clouds
2:55 PM9 °C7 °C87 %1005.1 hPa10 kmESE (110°)27.8 km/hScattered Clouds
3:55 PM9 °C6 °C82 %1005.1 hPa10 kmESE (110°)24.1 km/hScattered Clouds
4:00 PM8.9 °C6.1 °C77 %1005.4 hPa14.5 kmESE (110°)24.1 km/hPartly Cloudy
4:55 PM9 °C6 °C82 %1004.1 hPa10 kmESE (110°)24.1 km/hMostly Cloudy
5:55 PM8 °C6 °C87 %1004.1 hPa10 kmEast (100°)25.9 km/hMostly Cloudy
6:55 PM8 °C6 °C87 %1004.1 hPa10 kmESE (110°)18.5 km/hMostly Cloudy
7:00 PM7.8 °C5.6 °C83 %1004.4 hPa9.7 kmESE (110°)18.5 km/hOvercast
7:55 PM7 °C6 °C93 %1004.1 hPa10 kmEast (90°)14.8 km/hMostly Cloudy
8:55 PM8 °C5 °C81 %1002 hPa10 kmEast (90°)13 km/hScattered Clouds
9:55 PM8 °C4 °C76 %1002 hPa10 kmEast (90°)14.8 km/hMostly Cloudy
10:00 PM7.8 °C4.4 °C72 %1002.4 hPa11.3 kmEast (90°)14.8 km/hPartly Cloudy
10:55 PM8 °C5 °C81 %1001 hPa10 kmEast (90°)13 km/hMostly Cloudy
11:55 PM8 °C5 °C81 %1001 hPa10 kmEast (100°)22.2 km/hMostly Cloudy
Hourly data recorded from LIRE, located 0 kilometers away from Borgo Santa Rita, Italy







STORIES FROM OUR PARTNERS